CAPE
0 0 0 0 1 3 1 1 0 0 0 0 0 0 0 0 0 0 0 0 0 0 0 0 0 0 0 0 0 0 0 0 0 0 0 0 0 0 0 0 0 0 0 0 0 2 17
0 0 0 0 0 2 2 2 2 0 0 0 0 0 0 0 0 0 0 0 0 0 0 0 0 0 0 0 0 0 0 0 0 0 0 0 0 0 0 0 0 0 0 0 39 98 110
3 0 0 0 0 0 0 1 1 2 0 0 0 0 0 0 0 0 0 0 0 0 0 0 0 0 0 0 0 0 0 0 0 0 0 0 0 0 0 0 0 0 0 3 41 92 124
6 2 0 0 0 0 0 1 2 0 0 0 0 0 0 0 0 0 0 0 0 0 0 0 0 0 0 0 0 0 0 0 0 0 0 0 0 0 0 0 0 2 3 27 42 46 34
3 4 0 0 0 1 0 0 0 0 0 0 0 0 0 0 0 0 0 0 0 0 0 0 0 0 0 0 0 0 0 0 0 0 0 0 0 0 0 0 0 5 2 56 86 2 0
3 0 0 0 0 0 0 0 0 0 0 0 0 0 0 0 0 0 0 0 0 0 0 0 0 0 0 0 0 0 0 0 0 0 0 0 0 0 0 0 0 33 18 11 0 0 0
13 2 0 0 0 0 0 0 0 0 0 0 0 0 0 0 0 0 0 0 0 0 0 0 0 0 0 0 0 0 0 0 0 0 0 0 0 0 0 0 0 0 0 0 0 0 0
4 7 0 0 0 0 0 0 0 0 0 0 0 0 0 0 0 0 0 0 0 0 0 0 0 0 0 0 0 0 0 0 0 0 0 0 0 0 0 0 0 0 0 0 0 0 0
14 10 1 0 0 0 0 0 0 0 0 0 0 0 0 0 0 0 0 0 0 0 0 0 0 0 0 0 0 0 0 0 0 0 0 0 0 0 0 0 0 0 0 0 0 0 0
1 12 6 0 0 0 0 0 0 0 0 0 0 0 0 0 0 0 0 0 0 0 0 0 0 0 0 0 0 0 0 0 0 0 0 0 0 0 0 0 0 0 0 0 0 0 11
0 7 8 1 0 0 0 0 0 0 0 0 0 0 0 0 0 0 0 0 0 0 0 0 0 0 0 0 0 0 0 0 0 0 0 0 0 0 0 0 0 0 0 0 0 0 0
0 1 12 5 0 0 0 0 0 0 0 0 0 0 0 0 0 0 0 0 0 0 0 0 0 0 0 0 0 0 0 0 0 0 0 0 0 0 0 0 0 0 0 0 0 0 0
20 0 18 9 0 0 0 0 0 0 0 0 0 0 0 0 0 0 0 0 0 0 0 0 0 0 0 0 0 0 0 0 0 0 0 0 0 0 0 0 0 0 0 0 0 0 0
33 3 18 9 0 0 0 0 0 0 0 0 0 0 0 0 0 0 0 0 0 0 0 0 0 0 0 0 0 0 0 0 0 0 0 0 0 0 0 0 0 0 0 0 0 0 7
22 9 9 0 0 0 0 0 0 0 0 0 0 0 0 0 0 0 0 0 0 0 0 0 0 0 0 0 0 0 0 0 0 0 0 0 0 0 0 0 0 0 0 0 0 0 0
20 6 7 0 0 0 0 0 0 0 0 0 0 0 0 0 0 0 0 0 0 0 0 0 0 0 0 0 0 0 0 0 0 0 0 0 0 0 0 0 0 0 0 0 1 0 0
3 10 7 0 0 0 0 0 0 0 0 0 0 0 0 0 0 0 0 0 0 0 0 0 0 0 0 0 0 0 0 0 0 0 0 0 0 0 0 0 0 0 0 0 0 0 0
0 21 0 0 0 0 0 0 0 0 0 0 0 0 0 0 0 0 0 0 0 0 0 0 0 0 0 0 0 0 0 0 0 0 0 0 0 0 0 0 0 0 0 0 0 0 0
0 0 2 0 0 0 0 0 0 0 0 0 0 0 0 0 0 0 0 0 0 0 0 0 0 0 0 0 0 0 0 0 0 0 0 0 0 0 0 0 0 0 0 0 0 0 0
1 0 4 0 0 0 0 0 0 0 0 3 0 0 0 0 0 0 0 0 0 0 0 0 0 0 0 0 0 0 0 0 0 0 0 0 0 0 0 0 0 0 0 0 0 0 0
0 0 6 0 0 0 0 0 0 0 0 2 0 0 0 0 0 0 0 0 0 0 0 0 0 0 0 0 0 0 0 0 0 0 0 0 0 0 0 0 0 0 0 0 0 0 0
0 0 0 0 0 0 0 0 0 0 0 3 0 0 0 0 0 0 0 0 0 0 0 0 0 0 0 0 0 0 0 0 0 0 0 0 0 0 0 0 0 0 0 0 0 0 0
1 1 0 12 0 0 0 0 0 0 0 2 0 0 0 0 0 0 0 0 0 0 0 0 0 0 0 0 0 0 0 0 0 0 0 0 0 0 0 0 0 0 0 0 0 0 0
8 0 0 10 0 0 0 0 0 0 0 2 1 3 0 0 0 0 0 0 0 0 0 0 0 0 0 0 0 0 0 0 0 0 0 0 0 0 0 0 0 0 0 0 0 0 0
6 3 0 16 0 0 0 0 0 0 0 3 2 2 0 0 0 0 0 0 0 0 0 0 0 0 0 0 0 0 0 0 0 0 0 0 0 0 0 0 0 0 0 0 0 0 0
4 11 9 9 11 0 0 0 0 0 0 3 2 2 3 0 0 0 0 0 0 0 0 0 0 0 0 0 0 0 0 0 0 0 0 0 0 0 0 0 0 0 0 0 0 0 0
3 19 29 10 4 1 0 0 0 0 0 2 1 0 1 0 0 0 0 0 0 0 0 0 0 0 0 0 0 0 0 0 0 0 0 0 0 0 0 0 0 0 0 0 0 0 0
24 24 40 17 10 2 0 0 0 0 0 2 1 0 1 0 0 0 0 0 0 0 0 0 0 0 0 0 0 0 0 0 0 0 0 0 0 0 0 0 0 0 0 0 0 0 0
13 10 13 28 14 1 0 0 0 0 1 1 2 0 0 2 0 0 0 0 0 0 0 0 0 0 0 0 0 0 0 0 0 0 0 0 0 0 0 0 0 0 0 0 0 0 0
CIN
0 0 0 0 0 0 0 0 -1 0 0 0 0 0 0 0 0 0 0 0 0 0 0 0 0 0 0 0 0 0 0 0 0 0 0 0 0 0 0 0 0 0 0 0 0 -48 -141
0 0 0 0 0 0 -1 -2 -1 -1 0 0 0 0 0 0 0 0 0 0 0 0 0 0 0 0 0 0 0 0 0 0 0 0 0 0 0 0 0 0 0 0 0 0 -94 -87 -131
-19 0 0 0 0 0 -1 -1 0 0 0 0 0 0 0 0 0 0 0 0 0 0 0 0 0 0 0 0 0 0 0 0 0 0 0 0 0 0 0 0 0 0 0 -30 -68 -76 -66
-21 -16 0 0 0 -1 -1 -1 -1 0 0 0 0 0 0 0 0 0 0 0 0 0 0 0 0 0 0 0 0 0 0 0 0 0 0 0 0 0 0 0 0 -77 -69 -13 -81 -114 -91
-17 -24 0 0 0 -3 0 0 0 0 0 0 0 0 0 0 0 0 0 0 0 0 0 0 0 0 0 0 0 0 0 0 0 0 0 0 0 0 0 0 -7 -38 -5 -4 -18 -62 0
-6 -10 0 0 0 0 0 0 0 0 0 0 0 0 0 0 0 0 0 0 0 0 0 0 0 0 0 0 0 0 0 0 0 0 0 0 0 0 0 0 0 -6 -7 -8 0 -2 0
-5 -13 0 0 0 0 0 0 0 0 0 0 0 0 0 0 0 0 0 0 0 0 0 0 0 0 0 0 0 0 0 0 0 0 0 0 0 0 0 0 0 0 0 0 0 0 0
-16 -3 0 0 0 0 0 0 0 0 0 0 0 0 0 0 0 0 0 0 0 0 0 0 0 0 0 0 0 0 0 0 0 0 0 0 0 0 0 0 0 0 0 0 0 0 0
-16 -5 -12 0 0 0 0 0 0 0 0 0 0 0 0 0 0 0 0 0 0 0 0 0 0 0 0 0 0 0 0 0 0 0 0 0 0 0 0 0 0 0 0 0 0 0 0
-23 -16 -13 0 0 0 0 0 0 0 0 0 0 0 0 0 0 0 0 0 0 0 0 0 0 0 0 0 0 0 0 0 0 0 0 0 0 0 0 0 0 0 0 0 0 0 -5
0 -4 -13 -9 0 0 0 0 0 0 0 0 0 0 0 0 0 0 0 0 0 0 0 0 0 0 0 0 0 0 0 0 0 0 0 0 0 0 0 0 0 0 0 0 0 0 0
-2 -2 -8 -27 0 0 0 0 0 0 0 0 0 0 0 0 0 0 0 0 0 0 0 0 0 0 0 0 0 0 0 0 0 0 0 0 0 0 0 0 0 0 0 0 0 0 0
-6 0 -5 -25 0 0 0 0 0 0 0 0 0 0 0 0 0 0 0 0 0 0 0 0 0 0 0 0 0 0 0 0 0 0 0 0 0 0 0 0 0 0 0 0 0 0 0
-2 -24 -5 -25 -31 0 0 0 0 0 0 0 0 0 0 0 0 0 0 0 0 0 0 0 0 0 0 0 0 0 0 0 0 0 0 0 0 0 0 0 0 0 0 0 0 0 -3
-6 -10 -11 0 0 0 0 0 0 0 0 0 0 0 0 0 0 0 0 0 0 0 0 0 0 0 0 0 0 0 0 0 0 0 0 0 0 0 0 0 0 0 0 0 0 0 0
-15 -8 -13 0 0 0 0 0 0 0 0 -1 0 0 0 0 0 0 0 0 0 0 0 0 0 0 0 0 0 0 0 0 0 0 0 0 0 0 0 0 0 0 0 0 -1 0 -1
-3 -3 -13 0 0 0 0 0 0 0 0 0 0 0 0 0 0 0 0 0 0 0 0 0 0 0 0 0 0 0 0 0 0 0 0 0 0 0 0 0 0 0 0 0 0 0 0
0 0 0 0 0 0 0 0 0 0 0 0 0 0 0 0 0 0 0 0 0 0 0 0 0 0 0 0 0 0 0 0 0 0 0 0 0 0 0 0 0 0 0 0 0 0 0
0 -10 -21 0 0 0 0 0 0 0 0 0 0 0 0 0 0 0 0 0 0 0 0 0 0 0 0 0 0 0 0 0 0 0 0 0 0 0 0 0 0 0 0 0 0 0 0
-4 0 -2 0 0 0 0 0 0 0 0 0 0 0 0 0 0 0 0 0 0 0 0 0 0 0 0 0 0 0 0 0 0 0 0 0 0 0 0 0 0 0 0 0 0 0 0
-1 0 -3 0 0 0 0 0 0 0 -3 0 0 0 0 0 0 0 0 0 0 0 0 0 0 0 0 0 0 0 0 0 0 0 0 0 0 0 0 0 0 0 0 0 0 0 0
0 0 0 -1 0 0 0 0 0 0 0 0 0 0 0 0 0 0 0 0 0 0 0 0 0 0 0 0 0 0 0 0 0 0 0 0 0 0 0 0 0 0 0 0 0 0 0
-4 -11 0 -2 0 0 0 0 0 0 0 0 0 0 0 0 0 0 0 0 0 0 0 0 0 0 0 0 0 0 0 0 0 0 0 0 0 0 0 0 0 0 0 0 0 0 0
-3 -6 0 -1 0 0 0 0 0 0 0 0 0 0 0 0 0 0 0 0 0 0 0 0 0 0 0 0 0 0 0 0 0 0 0 0 0 0 0 0 0 0 0 0 0 0 0
0 -5 0 -1 -26 0 0 0 0 0 0 0 0 0 0 0 0 0 0 0 0 0 0 0 0 0 0 0 0 0 0 0 0 0 0 0 0 0 0 0 0 0 0 0 0 0 0
-1 -3 -5 -3 -13 0 0 0 0 0 0 0 0 0 0 0 0 0 0 0 0 0 0 0 0 0 0 0 0 0 0 0 0 0 0 0 0 0 0 0 0 0 0 0 0 0 0
-4 -3 -3 -3 -4 -27 0 0 0 0 0 0 0 0 0 0 0 0 0 0 0 0 0 0 0 0 0 0 0 0 0 0 0 0 0 0 0 0 0 0 0 0 0 0 0 0 0
-14 -11 -5 -3 -25 -30 0 0 0 0 -1 0 0 0 0 0 0 0 0 0 0 0 0 0 0 0 0 0 0 0 0 0 0 0 0 0 0 0 0 0 0 0 0 0 0 0 0
-21 -17 -13 -6 -10 -21 0 0 0 0 -1 -1 0 0 0 0 0 0 0 0 0 0 0 0 0 0 0 0 0 0 0 0 0 0 0 0 0 0 0 0 0 0 0 0 0 0 0
Wind_Speed
26 25 24 25 26 25 26 27 28 28 28 28 27 27 26 26 27 27 27 28 29 30 30 29 27 25 21 19 19 12 14 13 8 13 13 13 16 19 22 20 18 22 25 22 24 24 22
26 26 24 25 25 25 26 26 27 27 27 27 26 26 26 26 26 26 26 27 28 29 30 30 27 24 20 23 15 14 15 17 12 10 13 16 19 20 24 24 21 21 24 26 23 21 20
25 27 25 25 26 26 26 26 27 26 26 26 26 26 26 26 25 25 25 25 25 27 30 30 26 21 22 25 16 17 22 19 17 15 16 18 20 20 19 22 22 23 25 22 21 20 22
27 27 26 25 26 25 25 25 24 24 25 25 25 26 26 25 25 25 24 23 23 24 25 25 18 18 24 18 19 22 18 19 17 16 17 16 16 19 20 20 21 22 23 25 15 20 23
30 28 27 26 26 25 25 24 24 24 24 24 25 25 25 25 25 25 24 24 21 19 17 10 14 19 22 17 19 16 17 14 11 10 10 12 13 18 18 21 22 20 29 29 22 22 21
32 31 27 25 25 24 24 23 23 23 23 24 24 24 25 25 24 24 24 22 14 14 13 14 16 17 19 18 20 21 15 14 10 7 9 9 12 15 16 21 27 27 24 22 25 20 25
33 31 27 25 25 25 25 24 23 23 23 23 23 24 24 24 24 23 21 16 14 13 10 16 14 17 15 21 17 13 12 8 7 9 4 11 5 4 23 22 26 26 28 29 30 26 26
34 31 26 27 25 25 25 24 24 23 23 23 23 24 24 24 23 22 18 14 14 16 17 15 19 23 21 19 18 14 11 8 9 6 11 11 3 19 20 20 22 23 26 27 27 20 22
36 33 31 28 26 25 25 24 24 23 23 23 23 23 24 24 23 18 14 13 17 14 15 15 15 18 17 14 18 13 12 11 10 12 11 20 17 11 16 16 19 22 25 27 26 20 20
36 34 32 28 27 25 25 24 23 23 23 23 23 23 23 24 17 16 14 17 18 12 14 16 15 15 11 13 16 13 13 13 12 18 16 21 16 17 17 18 19 23 20 25 22 20 22
35 35 33 29 28 25 25 24 23 23 23 23 23 22 22 20 18 15 16 19 14 13 16 15 14 13 8 11 11 11 11 11 10 11 13 15 13 13 14 20 17 22 21 20 17 20 22
38 35 33 30 29 26 25 24 23 23 23 22 22 21 21 17 17 16 18 17 13 15 18 12 12 10 7 10 11 9 8 11 12 12 15 20 16 17 20 18 16 18 18 18 19 21 22
40 37 34 32 30 27 25 24 23 23 22 22 21 20 20 19 16 18 18 12 15 19 11 10 10 8 8 7 8 9 9 9 14 12 14 14 15 15 17 19 13 13 17 21 20 17 22
41 38 35 33 31 28 26 25 23 23 22 21 20 20 18 20 20 20 16 15 20 14 12 11 10 7 9 10 13 13 11 10 13 15 14 16 14 16 16 17 18 12 18 20 23 22 21
39 38 36 33 31 28 28 25 23 23 22 21 21 17 18 17 18 17 16 18 17 13 12 11 8 7 9 10 12 11 12 12 14 13 15 14 13 14 16 16 14 14 15 18 18 19 20
37 38 37 34 31 27 27 26 24 23 22 20 19 18 17 16 17 16 16 17 16 14 14 14 11 13 9 10 10 11 12 14 13 14 13 14 12 15 14 15 16 16 14 17 16 20 22
30 37 37 34 32 30 28 26 24 23 22 20 21 18 17 16 16 17 17 15 16 16 14 15 13 10 11 10 11 11 12 12 14 13 13 13 13 13 12 17 18 16 17 19 19 21 23
36 37 37 34 32 30 28 27 25 23 21 20 21 20 17 16 17 16 17 16 16 15 14 15 13 10 11 11 11 12 11 14 15 13 14 14 13 13 14 14 17 18 19 20 21 18 19
36 32 38 35 33 31 28 26 25 23 21 20 20 18 15 17 20 17 16 17 17 15 15 15 13 13 12 11 12 10 11 13 14 13 13 13 13 11 11 12 15 18 22 20 19 18 18
36 35 37 35 34 32 30 27 25 24 22 21 20 20 17 16 16 16 17 19 18 17 17 15 12 10 9 10 11 8 9 12 12 12 14 13 14 15 15 15 16 16 19 20 19 14 16
36 35 36 36 34 32 31 28 24 22 21 21 20 21 17 20 20 18 17 18 18 16 18 15 13 11 10 11 8 8 9 9 12 13 14 14 13 14 15 15 16 17 18 20 19 17 18
36 35 34 36 34 32 31 28 25 24 22 22 21 19 17 16 16 17 17 19 19 19 19 16 14 12 13 10 13 7 7 11 12 13 14 15 11 12 16 15 15 17 17 18 19 19 19
35 34 34 37 34 32 31 29 27 25 25 23 20 18 19 18 16 19 21 18 20 21 18 16 10 10 11 12 11 10 11 12 13 14 14 14 9 10 12 13 14 14 17 17 17 19 19
34 34 33 35 34 33 31 29 28 26 24 22 20 20 20 19 19 21 20 19 20 20 19 16 16 15 14 7 8 10 11 11 13 14 14 9 10 13 12 11 14 15 15 15 16 18 19
34 34 34 34 34 33 31 30 28 27 25 21 20 21 20 20 20 20 19 18 18 17 17 15 16 15 8 13 12 13 14 14 14 14 14 13 10 13 12 11 15 12 11 13 14 17 18
34 35 35 34 36 33 32 30 28 28 25 23 20 19 19 21 23 19 19 19 18 18 16 16 13 13 14 15 15 16 14 12 10 10 12 10 10 12 11 14 15 14 12 13 13 15 18
35 35 36 35 35 34 32 30 28 28 26 24 21 19 20 20 19 20 20 19 17 17 16 13 13 16 17 15 16 15 14 12 10 9 7 7 9 10 10 15 14 13 14 14 15 18 18
35 36 35 35 34 35 32 29 28 28 27 25 22 20 20 20 18 19 18 19 17 18 15 13 12 16 17 16 17 15 15 12 11 10 7 8 9 10 12 14 15 11 13 15 16 17 17
36 36 36 36 34 32 33 29 29 28 27 26 24 20 18 20 18 15 14 14 16 18 15 14 16 14 16 16 16 14 14 13 11 9 11 10 12 11 14 14 13 12 15 16 17 17 17
Wind_Direction
274 275 277 275 275 275 272 270 269 267 267 265 264 267 271 274 273 277 276 275 273 273 274 276 279 284 298 295 293 321 306 305 289 268 267 271 272 274 276 283 285 284 287 298 302 306 316
271 270 276 275 274 272 271 270 266 265 262 261 259 259 261 265 267 269 270 269 270 266 269 270 275 282 294 280 313 305 295 283 285 278 277 272 274 276 281 281 283 296 288 293 303 312 321
269 267 271 274 271 269 271 270 264 263 261 261 259 259 260 262 264 265 266 265 265 264 266 266 272 287 285 271 303 295 277 273 277 280 277 275 275 278 286 287 287 291 290 296 300 311 315
263 264 267 271 271 268 270 270 267 264 262 262 262 262 262 263 266 266 265 262 261 260 258 269 282 287 279 297 293 280 284 273 279 281 283 287 283 282 281 292 295 292 293 292 309 316 316
258 260 264 268 268 268 268 269 266 264 264 265 266 265 264 264 267 267 267 265 254 255 294 330 293 277 282 296 283 298 287 282 293 299 308 303 292 287 289 287 290 291 287 292 302 314 320
254 254 260 267 266 268 267 270 268 267 266 267 269 270 268 268 267 269 271 265 334 339 26 306 290 287 285 281 281 283 293 281 293 304 315 313 301 293 290 284 282 289 296 302 302 318 313
252 253 258 264 265 265 265 267 268 269 268 269 272 272 271 272 270 271 279 296 331 334 6 301 310 291 303 279 291 294 297 289 293 292 308 308 299 264 283 288 288 291 294 296 299 310 313
248 251 256 258 262 263 264 265 266 269 269 271 273 274 273 274 272 273 280 310 318 309 307 332 290 270 279 287 278 293 295 282 278 273 293 309 288 294 291 295 296 297 299 303 307 319 320
245 246 248 252 258 261 262 264 265 268 271 271 274 276 274 273 271 279 303 315 300 323 317 329 333 304 291 294 280 292 293 289 281 279 288 285 305 324 305 310 306 305 303 302 307 322 327
244 243 245 249 253 257 260 262 264 267 271 272 275 276 275 275 277 283 295 295 298 331 317 323 333 326 306 287 289 299 298 295 295 280 289 287 299 300 305 307 310 306 316 308 312 319 319
244 242 241 245 248 254 257 259 263 266 270 272 275 276 275 274 277 282 290 289 302 315 293 322 332 331 319 307 324 321 307 303 303 304 301 305 310 309 308 302 311 306 318 321 324 320 320
240 241 238 240 243 250 254 256 259 264 268 271 274 276 274 272 274 282 287 291 299 290 283 327 336 342 350 313 340 10 321 314 313 315 307 299 314 310 305 310 312 317 317 321 322 318 316
238 238 235 236 238 245 251 253 256 260 264 268 272 273 269 267 270 271 270 294 280 273 302 311 325 337 330 339 326 345 350 331 304 314 311 317 313 320 316 311 318 319 318 316 318 320 320
236 234 232 233 235 239 245 249 252 255 258 262 266 266 265 257 258 259 267 272 265 279 291 303 309 334 325 316 305 312 325 337 324 313 326 319 323 322 330 318 317 322 315 315 317 320 328
234 231 230 232 234 239 239 245 250 250 253 257 257 257 257 257 258 259 258 265 273 279 285 289 306 316 319 317 311 323 317 319 322 324 327 332 333 349 342 333 330 334 325 330 328 329 329
238 229 228 230 234 238 240 241 247 248 248 252 245 249 252 259 256 258 264 272 278 281 278 273 283 290 308 312 321 320 323 321 327 327 343 347 344 339 343 339 350 333 344 335 337 328 326
239 226 226 228 231 234 234 236 242 243 243 245 236 244 252 256 257 256 264 276 272 278 279 272 282 293 302 308 316 317 320 331 328 337 355 355 355 356 349 340 338 341 335 333 333 329 326
230 227 225 226 228 229 231 233 238 241 242 240 237 244 253 258 253 265 266 271 279 280 277 272 282 298 299 309 311 314 320 321 322 330 340 350 354 352 352 351 341 345 337 334 331 339 339
230 235 223 224 225 226 229 233 234 238 238 239 238 249 263 260 256 260 269 269 270 275 269 266 276 287 297 306 307 321 322 329 327 335 342 355 354 12 17 17 1 343 329 335 338 344 351
227 229 223 222 223 225 226 229 233 232 234 241 243 245 255 263 272 261 259 258 261 267 263 267 275 288 297 305 313 320 327 331 342 354 2 14 358 348 352 2 5 7 348 346 352 7 7
226 224 223 220 221 224 224 227 232 234 236 242 248 248 255 249 253 255 258 258 254 256 257 260 269 277 283 295 321 321 326 341 340 340 351 350 353 4 6 20 17 13 7 4 15 15 8
223 222 224 219 219 221 222 225 228 230 230 240 240 244 252 259 251 251 255 254 248 250 249 254 261 270 277 289 300 319 339 318 321 331 328 325 2 24 8 19 25 20 18 21 19 18 21
220 221 223 217 217 219 220 223 225 226 229 237 243 248 247 247 248 246 249 252 247 244 254 260 260 267 277 289 307 321 326 325 314 315 323 331 13 19 13 15 21 21 12 17 21 18 14
217 218 220 215 216 217 219 222 224 225 232 238 241 243 243 241 243 243 249 248 245 243 250 256 257 263 273 311 331 332 333 332 317 310 313 351 354 346 0 21 6 9 14 21 28 25 23
217 218 217 217 216 216 218 221 223 224 228 235 240 241 243 240 243 244 247 246 247 249 252 254 260 266 265 281 292 303 307 308 308 304 306 313 345 347 357 10 6 26 37 39 33 23 27
217 218 218 218 215 215 217 220 222 224 226 232 239 247 245 239 241 248 245 243 246 245 251 256 267 262 266 275 281 287 297 305 314 322 315 331 343 349 359 356 359 22 42 41 41 23 25
217 218 217 216 216 215 216 219 221 223 225 230 238 246 245 245 251 247 245 245 254 251 253 256 260 261 264 270 275 284 288 296 315 320 344 356 359 358 6 354 7 36 36 47 22 12 22
214 216 215 215 215 214 215 218 220 222 223 227 235 244 245 246 252 252 254 248 253 251 250 256 259 263 260 268 274 283 285 289 303 317 332 341 351 356 355 351 352 53 39 18 20 23 26
214 215 214 214 214 214 214 218 220 221 222 227 232 243 249 247 250 259 260 267 261 258 259 255 267 263 267 271 275 283 284 285 294 308 313 328 333 347 345 352 29 40 32 32 25 28 28